�������r�C�����j�^�v���󋵏��
Date,Time,5�C6���@���p�r�C��,����,����(m/s)
2021/12/25,00:00,4.1,��,3.7
2021/12/25,00:10,4.1,�쐼,1.9
2021/12/25,00:20,4.2,��쓌,1.2
2021/12/25,00:30,4.1,-,CALM
2021/12/25,00:40,4.0,���쐼,2.0
2021/12/25,00:50,4.0,��,5.5
2021/12/25,01:00,4.1,��쓌,4.8
2021/12/25,01:10,4.0,�쓌,4.2
2021/12/25,01:20,4.0,��,2.9
2021/12/25,01:30,3.9,��쓌,4.0
2021/12/25,01:40,4.0,��쓌,4.1
2021/12/25,01:50,4.0,�쓌,2.8
2021/12/25,02:00,4.0,��쓌,2.8
2021/12/25,02:10,3.9,��쐼,2.0
2021/12/25,02:20,4.1,���쐼,2.6
2021/12/25,02:30,3.9,���쐼,3.7
2021/12/25,02:40,3.9,���쐼,3.5
2021/12/25,02:50,3.9,���쐼,1.1
2021/12/25,03:00,4.0,�k��,2.2
2021/12/25,03:10,3.9,���k��,2.3
2021/12/25,03:20,4.1,�k��,2.0
2021/12/25,03:30,4.0,�k��,2.5
2021/12/25,03:40,4.1,�k�k��,3.6
2021/12/25,03:50,4.0,�k�k��,4.5
2021/12/25,04:00,4.2,�k��,5.3
2021/12/25,04:10,4.0,�k��,4.8
2021/12/25,04:20,3.9,�k�k��,4.4
2021/12/25,04:30,4.0,�k,5.6
2021/12/25,04:40,4.2,�k,6.2
2021/12/25,04:50,4.1,�k,5.8
2021/12/25,05:00,4.2,�k,6.0
2021/12/25,05:10,4.1,�k,5.6
2021/12/25,05:20,3.9,�k�k��,6.3
2021/12/25,05:30,4.0,�k�k��,6.2
2021/12/25,05:40,3.9,�k�k��,6.4
2021/12/25,05:50,4.0,�k�k��,6.7
2021/12/25,06:00,4.0,�k�k��,7.6
2021/12/25,06:10,4.1,�k�k��,6.7
2021/12/25,06:20,3.9,�k�k��,6.8
2021/12/25,06:30,4.0,�k�k��,5.7
2021/12/25,06:40,4.1,�k�k��,6.0
2021/12/25,06:50,4.0,�k�k��,6.1
2021/12/25,07:00,3.9,�k��,6.4
2021/12/25,07:10,4.1,�k�k��,6.9
2021/12/25,07:20,4.1,�k�k��,7.1
2021/12/25,07:30,3.9,�k�k��,6.5
2021/12/25,07:40,4.0,�k��,6.0
2021/12/25,07:50,3.8,�k��,6.1
2021/12/25,08:00,4.0,�k��,5.3
2021/12/25,08:10,4.1,�k��,6.5
2021/12/25,08:20,4.0,�k��,7.0
2021/12/25,08:30,4.1,�k�k��,5.2
2021/12/25,08:40,4.1,�k�k��,6.6
2021/12/25,08:50,4.1,�k�k��,5.8
2021/12/25,09:00,4.0,�k�k��,6.6
2021/12/25,09:10,4.0,�k�k��,6.1
2021/12/25,09:20,3.9,�k�k��,7.3
2021/12/25,09:30,4.1,�k�k��,8.1
2021/12/25,09:40,4.0,�k�k��,7.3
2021/12/25,09:50,3.9,�k�k��,8.9
2021/12/25,10:00,4.1,�k�k��,9.1
2021/12/25,10:10,4.0,�k�k��,8.7
2021/12/25,10:20,4.0,�k,8.7
2021/12/25,10:30,3.9,�k�k��,10.2
2021/12/25,10:40,4.2,�k�k��,8.3
2021/12/25,10:50,4.2,�k�k��,10.7
2021/12/25,11:00,4.1,�k�k��,10.2
2021/12/25,11:10,4.1,�k�k��,7.0
2021/12/25,11:20,4.1,�k�k��,7.6
2021/12/25,11:30,4.1,�k�k��,6.5
2021/12/25,11:40,4.0,�k�k��,7.4
2021/12/25,11:50,4.2,�k�k��,8.5
2021/12/25,12:00,4.0,�k�k��,7.3
2021/12/25,12:10,4.1,�k,6.8
2021/12/25,12:20,4.2,�k,6.7
2021/12/25,12:30,4.0,�k,7.1
2021/12/25,12:40,4.0,�k,5.5
2021/12/25,12:50,4.1,�k,6.6
2021/12/25,13:00,4.0,�k�k��,7.1
2021/12/25,13:10,4.0,�k,6.9
2021/12/25,13:20,4.0,�k,7.9
2021/12/25,13:30,4.2,�k,8.5
2021/12/25,13:40,4.0,�k�k��,9.7
2021/12/25,13:50,4.1,�k,10.0
2021/12/25,14:00,3.9,�k,9.1
2021/12/25,14:10,4.1,�k,8.1
2021/12/25,14:20,3.9,�k,8.4
2021/12/25,14:30,4.1,�k,7.3
2021/12/25,14:40,4.0,�k,7.7
2021/12/25,14:50,4.0,�k,7.8
2021/12/25,15:00,4.0,�k,9.0
2021/12/25,15:10,4.1,�k�k��,8.6
2021/12/25,15:20,3.9,�k�k��,8.6
2021/12/25,15:30,4.0,�k�k��,7.3
2021/12/25,15:40,3.9,�k�k��,6.6
2021/12/25,15:50,4.0,�k�k��,7.1
2021/12/25,16:00,4.0,�k�k��,5.7
2021/12/25,16:10,4.1,�k�k��,4.5
2021/12/25,16:20,3.9,�k�k��,4.8
2021/12/25,16:30,4.1,�k�k��,7.7
2021/12/25,16:40,4.1,�k�k��,6.7
2021/12/25,16:50,4.0,�k�k��,7.9
2021/12/25,17:00,3.9,�k�k��,5.8
2021/12/25,17:10,3.9,�k�k��,6.3
2021/12/25,17:20,4.0,�k�k��,6.8
2021/12/25,17:30,3.9,�k�k��,6.6
2021/12/25,17:40,4.2,�k�k��,5.8
2021/12/25,17:50,3.9,�k,5.5
2021/12/25,18:00,3.9,�k,5.3
2021/12/25,18:10,3.9,�k,4.1
2021/12/25,18:20,3.9,�k,4.6
2021/12/25,18:30,4.0,�k�k��,7.4
2021/12/25,18:40,4.1,�k�k��,6.7
2021/12/25,18:50,4.1,�k�k��,6.3
2021/12/25,19:00,4.0,�k�k��,6.5
2021/12/25,19:10,4.0,�k�k��,7.2
2021/12/25,19:20,4.1,�k�k��,5.3
2021/12/25,19:30,4.1,�k�k��,6.8
2021/12/25,19:40,3.9,�k�k��,6.2
2021/12/25,19:50,4.0,�k�k��,5.8
2021/12/25,20:00,4.1,�k�k��,8.6
2021/12/25,20:10,3.9,�k��,7.6
2021/12/25,20:20,4.1,�k��,9.0
2021/12/25,20:30,3.9,�k��,11.8
2021/12/25,20:40,4.0,�k��,7.7
2021/12/25,20:50,4.2,�k��,8.6
2021/12/25,21:00,4.0,�k��,9.1
2021/12/25,21:10,4.3,�k��,9.3
2021/12/25,21:20,4.0,�k��,10.7
2021/12/25,21:30,3.9,�k��,7.6
2021/12/25,21:40,4.0,�k��,10.3
2021/12/25,21:50,4.3,�k��,7.4
2021/12/25,22:00,4.1,�k��,8.0
2021/12/25,22:10,3.9,�k��,9.6
2021/12/25,22:20,4.0,���k��,8.3
2021/12/25,22:30,4.0,�k��,9.5
2021/12/25,22:40,4.1,�k��,8.6
2021/12/25,22:50,4.1,�k��,10.7
2021/12/25,23:00,3.9,�k��,11.1
2021/12/25,23:10,3.9,�k��,7.7
2021/12/25,23:20,4.0,�k��,8.2
2021/12/25,23:30,3.9,�k��,7.6
2021/12/25,23:40,3.9,�k��,5.8
2021/12/25,23:50,4.2,���k��,8.2
